GFSNGP_250_rhum_000.txt.gz
RH
100 100 100 100 100 100 100 100 100 100 99 77 39 34 32 31 47 58 62 64 62 60 58 53 50 52 54 59 59 54 50 46 44 43 43 42 40 37 33 33 33 28 24 22
100 100 100 100 100 100 100 100 100 100 90 62 30 29 32 41 47 54 61 61 62 62 61 53 51 53 55 57 53 48 45 44 45 42 40 40 38 33 33 35 28 23 23 34
100 100 100 100 100 100 100 76 84 100 78 44 35 30 34 39 50 62 71 68 63 62 61 51 48 49 52 48 45 44 44 42 38 37 38 38 33 33 37 26 23 30 38 44
100 100 100 100 100 100 100 100 63 74 52 37 34 34 46 56 68 72 71 62 57 59 57 50 49 48 47 46 44 42 36 33 35 37 36 32 33 33 25 24 38 44 50 47
100 100 100 100 100 100 100 98 53 48 41 32 31 42 58 67 70 73 71 62 61 61 58 55 52 50 48 46 39 34 33 34 36 35 31 38 27 24 28 42 46 52 40 36
98 82 82 94 67 50 43 46 54 42 35 31 34 54 65 73 70 66 64 61 58 57 54 50 48 46 43 38 35 34 36 34 31 39 37 25 24 38 48 49 48 40 37 53
84 73 45 51 53 42 48 36 34 40 38 36 41 53 70 73 75 72 68 66 65 66 67 62 53 47 41 38 37 34 32 41 41 28 25 30 44 49 48 46 39 49 61 42
88 70 60 49 41 46 52 51 44 46 42 43 49 55 61 63 64 60 58 58 58 56 52 52 48 42 40 36 37 46 43 29 26 28 39 48 51 45 42 46 64 52 41 49
70 69 68 60 52 48 44 40 35 30 39 52 60 62 64 66 64 62 61 58 56 53 49 44 40 38 45 47 39 29 26 26 38 46 51 47 44 48 68 65 45 50 53 55
53 52 49 50 48 43 36 29 29 26 30 42 51 58 58 56 52 46 42 40 39 39 44 51 47 39 30 28 26 27 39 45 51 45 45 44 60 71 58 53 54 53 54 51
33 40 40 37 35 34 31 29 29 29 29 37 43 46 46 46 46 50 53 50 45 40 34 30 28 26 26 32 42 45 49 45 43 41 57 73 65 58 61 59 57 53 48 47
41 35 31 28 26 27 28 25 23 23 24 25 27 28 28 29 28 28 28 28 28 27 27 27 30 43 48 48 47 41 39 39 50 75 69 72 72 66 63 56 53 48 50 34
39 33 29 25 24 23 22 23 24 24 25 24 24 24 24 24 25 27 27 27 29 35 49 48 50 50 44 39 38 39 43 66 74 75 78 70 72 67 63 63 58 54 32 27
51 50 52 48 39 34 30 27 24 24 25 27 28 29 29 33 44 50 52 53 52 50 47 43 39 36 39 43 56 72 75 78 83 74 76 76 65 61 61 65 48 34 32 21
76 75 75 76 77 76 76 78 77 72 69 68 64 61 58 56 55 54 52 49 43 40 43 44 44 52 66 74 72 79 86 82 83 76 67 64 63 68 69 50 31 27 17 12
94 89 84 78 74 75 76 75 73 72 74 71 65 62 60 56 48 39 40 45 54 54 58 67 79 73 64 76 82 83 87 79 68 68 70 70 69 65 45 31 27 18 11 10
95 97 88 81 78 76 70 65 65 60 49 46 51 49 44 45 48 50 51 56 64 75 76 66 67 78 76 73 82 80 70 69 77 72 73 71 62 45 28 25 16 12 10 9
89 100 100 99 94 90 76 79 64 65 63 60 61 62 61 55 52 54 62 68 69 61 64 76 75 68 72 77 73 73 78 77 76 79 74 60 37 28 23 18 13 11 9 6
98 89 95 98 91 80 79 77 72 68 74 78 65 63 64 63 60 61 59 54 57 70 72 66 67 73 73 71 76 80 79 85 83 70 56 33 26 23 19 15 10 9 6 6
91 82 84 92 78 80 73 71 74 78 93 95 93 84 73 65 62 58 59 65 65 67 71 72 76 77 71 76 82 88 90 80 70 50 36 27 27 26 15 10 8 6 6 7
67 80 83 88 90 93 82 72 75 89 94 95 97 87 70 62 67 66 64 64 69 73 75 79 75 71 78 85 89 84 79 69 50 34 28 28 27 15 10 8 6 6 7 6
64 66 68 67 71 71 67 66 72 92 98 99 87 78 81 76 70 68 67 73 78 80 80 79 69 74 84 88 82 84 82 54 33 32 31 28 16 10 7 6 6 7 6 6
68 63 60 60 62 59 58 67 86 90 94 86 87 94 85 76 74 74 80 84 86 85 81 64 70 81 85 86 89 82 55 33 32 34 28 17 10 6 5 5 7 7 6 5
78 69 65 64 62 60 71 84 92 96 92 94 94 86 82 79 77 80 86 92 91 77 61 68 84 85 88 91 82 57 33 34 34 28 16 9 6 5 5 7 6 6 4 4
96 96 94 92 95 99 99 100 98 91 90 89 86 81 80 79 82 88 95 89 66 60 66 81 85 90 89 82 54 34 37 34 28 15 8 5 4 6 6 6 6 4 4 6
99 100 100 100 99 96 90 86 86 90 94 94 91 84 82 85 91 95 83 64 63 68 79 90 92 83 79 56 34 35 31 26 14 7 5 4 6 6 6 6 4 4 5 6
91 89 89 91 93 92 90 90 93 96 98 94 87 88 92 92 90 81 73 73 78 85 91 91 81 73 56 33 32 28 22 12 7 4 4 6 6 6 5 4 4 5 6 9

GFSNGP_250_rhum_003.txt.gz
RH
100 100 100 100 73 44 64 90 93 100 100 100 100 89 86 64 40 38 42 42 38 48 54 59 67 73 70 68 64 58 53 48 51 55 55 58 56 50 43 41 40 35 31 35
100 100 100 100 100 100 98 100 100 100 100 100 100 85 77 68 40 40 41 41 47 60 59 67 70 72 72 69 64 58 53 53 55 57 57 54 52 44 44 42 35 32 36 33
100 100 100 100 100 100 100 100 100 100 100 100 100 100 100 64 38 38 42 45 55 57 77 86 80 72 67 63 62 58 54 52 51 50 51 50 46 45 42 36 36 36 33 33
100 100 100 100 77 100 99 100 100 100 100 100 100 100 80 55 41 41 47 61 69 80 84 77 66 67 69 68 65 63 57 52 50 49 49 47 45 40 38 38 33 36 29 24
100 100 100 94 99 100 100 96 100 100 100 100 96 81 65 48 39 40 54 73 79 77 75 71 70 69 67 65 62 59 56 54 52 49 45 45 47 44 35 37 36 26 26 33
100 100 100 100 100 97 100 100 79 89 98 100 100 99 70 44 35 42 58 68 72 72 70 66 67 67 64 60 56 57 57 52 53 56 56 48 38 34 38 29 26 34 34 31
77 82 100 100 100 100 98 74 65 67 88 89 99 83 61 34 33 48 63 64 65 67 71 74 72 67 60 56 58 60 65 63 58 50 43 38 39 32 27 32 36 35 33 44
70 79 84 74 72 73 69 63 65 55 60 76 81 75 40 29 33 48 62 68 70 74 75 71 68 66 68 72 71 66 58 50 43 42 43 36 29 31 37 38 34 37 55 54
84 78 80 88 86 77 69 60 66 64 62 64 66 59 38 32 43 56 64 67 67 66 68 71 76 74 66 62 58 49 43 46 49 35 31 31 36 39 35 32 49 57 60 66
98 85 76 83 96 94 79 67 64 66 58 55 56 47 39 37 48 58 62 65 64 64 66 64 63 62 56 50 51 54 46 34 32 31 35 38 36 36 48 68 67 66 63 60
100 95 94 93 77 60 52 49 45 42 45 42 45 47 41 39 44 48 53 58 63 69 72 70 64 62 60 48 37 34 31 32 37 39 35 36 52 68 69 63 65 59 62 62
87 79 72 60 50 39 38 38 34 29 30 31 30 34 39 45 51 58 63 66 66 64 62 56 43 36 34 34 37 38 45 38 34 38 56 66 70 67 67 64 60 60 55 54
66 65 49 35 26 25 26 28 30 30 26 24 25 25 27 30 34 35 34 32 33 33 33 32 33 38 43 43 41 38 34 38 64 68 66 71 73 72 70 68 59 53 52 57
45 46 42 38 32 28 26 24 24 25 27 27 27 28 29 29 29 30 32 34 37 41 47 47 45 43 41 37 35 44 67 70 63 74 75 73 65 66 67 62 55 53 59 36
86 89 97 97 95 81 68 57 48 46 44 45 48 51 54 57 63 64 59 54 50 49 50 46 37 35 41 52 69 74 64 74 79 74 64 64 67 65 58 51 50 51 29 15
97 96 98 92 83 81 76 74 69 69 71 70 67 64 62 60 54 50 46 44 40 36 32 35 40 47 69 75 67 73 80 75 67 66 64 64 62 59 55 55 44 27 16 14
98 95 89 87 85 82 77 74 78 77 81 71 61 60 54 47 47 48 44 44 53 53 55 63 72 75 66 71 76 74 68 65 64 57 60 64 67 60 52 41 31 22 19 12
100 100 100 100 100 100 99 99 98 84 73 74 69 61 65 78 87 77 68 69 69 71 76 72 67 72 70 68 71 68 63 58 54 58 68 73 56 44 38 34 24 22 14 8
100 92 98 100 94 96 100 98 99 95 86 78 67 63 74 93 98 98 90 80 73 72 76 78 71 67 67 68 64 59 55 52 53 65 71 55 49 34 35 27 22 15 8 5
100 100 94 97 99 99 100 100 100 100 84 79 76 66 71 88 98 97 93 81 80 87 78 70 68 66 66 63 58 58 53 52 57 66 58 54 34 36 29 23 16 10 6 5
81 80 78 79 85 85 71 68 77 78 71 75 62 63 68 84 98 98 91 87 91 82 75 71 65 62 59 59 62 58 53 57 64 61 60 33 36 27 22 16 10 6 5 7
100 100 96 85 74 64 60 59 60 62 60 56 57 58 73 86 94 91 90 96 92 81 71 65 64 62 65 67 68 56 63 64 68 63 33 33 29 22 15 10 6 5 7 7
98 100 100 92 84 84 84 81 77 72 62 58 60 69 84 86 95 98 97 88 80 74 72 68 69 73 72 72 60 68 66 74 58 33 33 30 21 15 10 6 5 7 7 6
93 100 100 100 94 81 73 70 70 71 71 70 84 95 97 99 96 90 83 81 78 75 74 79 80 77 72 66 71 66 73 53 31 33 30 21 13 9 6 5 7 6 6 5
100 100 98 94 97 100 98 94 94 96 95 94 96 94 93 88 84 81 82 79 77 81 85 84 79 75 71 73 68 70 48 31 35 33 22 12 8 5 5 7 6 5 4 5
100 99 98 100 100 100 100 100 100 100 100 100 100 96 86 81 83 84 81 84 87 88 86 85 83 73 71 66 66 43 32 37 35 24 13 8 5 5 7 6 5 4 5 6
96 100 100 100 100 100 100 100 100 98 93 90 88 84 83 87 89 88 90 92 91 91 92 83 74 71 66 63 42 36 38 36 29 15 8 5 5 7 7 5 5 5 6 9

GFSNGP_250_rhum_006.txt.gz
RH
82 96 98 74 75 62 31 20 15 16 16 16 17 18 26 36 60 91 100 99 84 77 58 38 39 43 47 49 49 48 58 78 80 76 67 60 57 57 56 54 52 51 49 47
100 100 100 96 78 88 60 40 42 32 33 42 45 44 45 49 67 95 97 96 86 66 47 40 42 47 50 59 67 70 76 90 93 83 74 73 71 67 60 55 51 49 46 45
100 100 100 100 100 97 98 96 98 96 100 100 100 93 78 70 67 73 79 76 67 54 40 40 43 47 66 78 76 82 98 100 95 86 83 78 74 66 61 54 50 49 47 46
93 100 100 100 100 100 100 100 100 84 85 97 100 100 100 95 88 87 78 65 48 40 41 44 45 60 75 83 89 96 99 92 88 82 74 71 68 62 54 52 49 46 51 49
99 98 100 88 99 93 100 100 100 100 100 100 100 100 100 100 100 92 72 46 44 46 47 48 60 82 90 91 96 96 91 87 79 77 71 66 59 54 50 47 54 56 45 41
100 100 100 100 100 97 89 98 83 91 100 100 100 100 100 100 100 88 60 47 50 48 47 55 81 92 98 98 94 92 87 81 75 70 64 59 53 52 58 62 52 46 34 29
100 100 100 100 100 100 100 100 95 88 99 97 100 100 100 100 100 97 63 52 49 45 51 71 89 97 95 92 91 84 80 76 70 64 60 60 63 61 58 50 40 32 30 33
98 100 100 100 100 100 100 100 98 87 99 100 100 98 100 100 100 99 68 49 47 53 71 86 92 90 90 87 82 75 70 69 67 68 70 65 60 56 45 33 30 35 35 46
87 95 96 100 100 100 100 100 100 93 81 89 96 99 95 100 95 54 48 43 44 54 73 83 85 82 77 75 74 71 69 72 73 68 65 59 47 36 30 36 37 44 54 56
99 92 96 94 97 100 100 100 98 84 72 82 86 87 90 99 85 55 41 37 38 49 65 73 71 74 78 75 73 76 72 66 67 64 52 38 32 38 38 42 59 56 61 57
100 100 100 100 99 96 96 96 81 73 54 54 62 73 70 69 70 50 35 32 36 45 57 67 74 76 77 78 69 64 65 63 51 37 34 40 38 45 66 59 61 61 51 51
94 100 100 90 100 85 57 58 50 46 44 39 39 40 46 42 37 38 34 34 38 47 59 66 68 69 65 62 59 50 40 36 37 40 34 44 68 66 63 64 56 48 49 50
77 90 88 77 60 54 51 38 35 37 42 41 42 42 40 42 41 40 39 40 43 49 52 53 53 49 40 36 35 36 40 42 35 38 65 74 68 63 62 54 46 46 46 37
44 50 55 55 51 47 31 27 28 34 39 41 40 40 38 36 35 35 35 35 35 35 36 36 38 38 38 38 40 40 36 41 53 74 74 67 60 61 54 51 49 46 39 41
34 44 65 78 76 88 65 56 57 57 58 60 57 55 56 53 52 50 50 51 52 53 51 46 42 40 39 38 40 46 57 73 78 71 62 63 58 53 51 47 42 35 36 47
69 87 87 96 97 94 90 91 89 84 84 75 71 68 65 62 59 56 53 52 51 46 41 38 42 52 63 64 69 80 80 74 66 62 62 53 52 54 49 42 35 34 40 20
97 100 100 99 98 96 92 85 83 78 73 73 76 70 64 63 58 52 55 70 68 66 79 88 89 90 90 87 79 77 72 65 59 58 51 54 55 49 41 37 32 37 22 14
100 100 100 100 100 100 100 99 91 86 84 88 91 87 82 74 73 59 62 68 88 95 99 100 99 91 86 88 80 69 60 57 56 54 56 54 50 41 39 34 35 24 15 11
100 100 100 100 100 97 89 88 96 99 100 100 100 100 99 91 72 67 72 71 79 100 99 95 90 88 91 83 68 62 58 59 60 57 52 53 43 42 34 34 24 16 11 7
100 100 100 100 100 100 100 100 100 100 95 92 89 88 86 83 75 67 62 66 73 94 97 93 85 81 77 70 67 64 68 62 58 54 57 46 43 36 32 27 16 11 7 5
89 95 98 98 98 96 94 89 86 90 97 99 98 93 81 82 72 64 62 65 72 84 92 85 73 72 74 77 75 73 62 61 58 60 49 44 41 30 29 18 11 8 6 6
86 85 79 82 82 82 85 86 86 79 72 65 66 68 66 67 74 72 65 69 80 87 85 75 76 85 84 80 70 66 64 61 60 53 45 43 25 29 20 11 8 5 6 8
97 100 100 100 98 92 93 98 100 99 90 78 74 78 81 78 72 68 76 92 92 85 82 88 90 85 76 74 72 66 64 61 55 46 40 25 26 22 12 8 6 6 8 7
100 100 100 100 91 77 88 96 100 100 100 90 81 80 82 88 93 96 95 96 98 98 93 86 80 78 76 73 67 67 64 57 48 36 25 23 22 13 9 6 6 8 7 5
99 94 94 91 84 83 86 100 100 100 100 100 100 100 100 100 95 98 100 96 90 85 80 81 78 75 73 68 71 67 58 48 36 29 23 22 15 10 7 6 8 8 6 6
92 86 82 82 85 90 93 92 90 95 99 100 100 100 100 97 94 94 90 87 85 83 79 77 78 75 74 76 70 59 46 37 29 24 20 19 12 8 6 8 8 6 6 9
98 94 92 90 97 98 96 100 100 96 94 96 98 100 99 93 89 86 86 85 83 81 80 81 78 78 76 68 57 44 40 33 27 21 21 15 9 6 7 8 7 6 9 8

GFSNGP_250_rhum_009.txt.gz
RH
55 92 91 90 86 72 46 24 13 11 9 7 10 19 20 27 35 47 58 54 66 90 85 74 79 79 67 68 53 50 49 52 56 61 59 51 53 60 64 75 79 76 80 78
100 97 100 96 99 80 79 54 30 18 14 14 11 11 19 26 35 41 47 50 60 82 92 90 75 66 68 69 66 47 47 53 61 61 52 60 63 77 84 88 86 97 93 80
100 100 100 100 100 98 94 81 68 48 38 28 22 20 19 24 33 44 45 54 63 82 100 83 83 83 84 78 62 44 46 54 49 60 64 75 86 98 94 93 99 95 83 74
100 100 100 100 100 100 99 98 85 78 90 95 87 56 47 42 46 57 72 81 89 87 94 88 84 92 93 78 45 40 41 52 64 80 87 90 100 96 99 100 94 83 71 64
98 92 100 100 94 100 100 100 100 100 99 95 90 90 93 97 86 80 87 85 82 96 83 78 87 83 73 45 40 43 55 75 97 100 100 100 100 100 98 90 80 72 62 64
98 100 100 100 100 100 100 100 100 100 100 100 100 100 97 84 88 86 87 84 86 86 86 79 66 58 50 44 46 54 74 100 100 100 100 97 98 95 88 80 70 67 68 57
100 100 100 100 100 100 100 100 100 100 100 100 100 100 100 100 99 97 99 97 94 81 78 69 58 47 46 51 59 79 99 100 100 96 96 95 93 87 78 72 71 66 58 56
79 82 93 100 100 100 100 100 100 100 100 100 100 100 100 100 100 100 100 99 79 69 59 55 56 57 58 65 82 100 100 96 94 94 93 91 85 76 73 71 62 58 47 36
98 94 94 90 100 100 100 100 100 100 100 100 100 100 100 100 100 100 100 100 94 75 63 64 66 67 70 86 98 98 96 97 97 89 86 78 74 75 68 60 51 38 38 37
100 100 95 100 99 100 100 100 99 100 89 77 88 96 100 100 100 100 100 100 100 95 79 64 64 66 69 82 91 94 93 89 86 79 74 73 68 60 52 38 40 36 46 57
100 100 100 100 100 100 92 91 96 96 92 79 84 97 87 99 100 100 99 100 100 93 74 62 58 57 61 73 80 84 81 73 70 71 68 60 50 37 38 37 37 63 59 62
100 98 100 98 100 100 100 94 84 67 63 71 69 73 84 91 98 99 98 100 97 87 73 59 50 49 52 58 58 58 60 63 61 55 46 36 38 37 37 58 66 60 61 53
81 81 97 92 100 97 97 77 53 52 56 66 67 64 66 73 70 76 91 95 89 79 68 55 47 39 39 42 49 53 49 43 36 35 38 37 39 63 72 59 56 55 48 46
55 61 66 71 73 90 55 40 36 44 54 64 64 63 67 67 61 57 55 52 50 48 44 42 40 39 40 40 38 36 35 35 35 39 55 72 81 71 63 62 58 51 51 47
36 45 54 62 73 58 54 42 41 53 56 64 60 54 52 56 65 70 70 67 62 57 56 54 51 46 40 38 35 32 38 53 69 81 80 72 64 64 60 55 52 51 47 40
36 41 43 46 57 72 82 87 83 89 96 89 84 79 74 70 65 62 59 58 55 54 51 55 52 50 52 60 67 74 80 88 80 73 71 68 69 62 57 54 51 45 36 33
78 82 76 80 83 87 96 90 81 78 78 77 73 73 77 75 68 65 64 66 65 52 52 58 63 69 83 89 85 87 81 66 68 70 71 73 67 61 58 52 42 34 33 23
100 93 93 96 95 93 87 83 84 85 84 86 92 92 83 73 81 87 86 81 77 68 64 69 69 70 73 86 92 84 71 71 73 78 81 72 61 57 51 38 34 32 23 16
97 99 96 94 90 87 84 84 84 86 89 88 88 89 88 93 98 98 86 77 81 87 82 68 62 61 65 77 82 84 85 84 90 85 71 62 56 48 37 33 29 22 15 15
100 100 100 100 100 100 100 100 97 95 95 98 100 100 100 100 98 95 95 94 87 76 65 58 58 56 64 78 93 96 96 91 78 66 60 54 46 37 33 27 20 14 14 8
100 100 100 100 100 100 100 100 100 100 99 90 79 76 75 72 69 67 67 69 65 64 66 60 65 89 100 100 100 92 81 71 63 58 52 46 36 33 27 19 14 14 7 5
100 98 93 97 100 98 91 85 81 81 83 91 100 100 100 97 86 77 74 72 71 75 88 98 100 100 99 92 84 73 66 62 59 55 46 39 35 27 19 14 13 8 5 6
98 99 96 96 97 97 90 98 100 100 100 100 100 100 100 100 99 94 94 98 100 100 100 100 98 93 84 77 72 67 66 62 58 46 41 33 26 18 14 13 8 6 6 8
100 100 97 92 87 99 100 100 100 100 100 100 100 97 96 100 100 100 98 98 99 99 98 93 83 78 77 73 71 70 66 61 49 44 35 24 16 16 12 9 6 6 8 8
100 100 99 99 99 97 96 100 100 99 97 93 89 90 88 88 89 89 92 95 94 91 84 82 80 78 74 74 72 66 62 54 46 39 23 15 15 13 11 7 6 8 9 8
100 100 100 100 100 99 99 100 95 89 86 86 88 87 87 90 93 93 92 93 91 88 83 79 76 76 77 76 68 65 58 51 42 22 15 14 13 12 8 6 8 10 8 9
100 100 99 98 100 100 100 100 99 94 96 100 96 91 91 94 90 86 92 93 89 84 81 80 80 81 77 68 66 60 56 45 26 17 15 13 12 8 6 8 10 9 9 10

GFSNGP_250_rhum_012.txt.gz
RH
76 89 97 91 95 90 82 45 22 14 10 6 4 5 6 15 20 23 19 27 48 58 78 87 86 73 77 79 74 80 83 85 74 61 60 62 58 58 65 73 67 54 55 52
100 88 98 100 100 93 94 83 57 33 18 12 7 9 12 18 21 23 23 41 59 67 68 67 73 79 87 98 90 86 85 93 75 67 63 56 51 46 57 64 71 67 62 62
89 74 98 97 100 100 73 77 88 58 31 27 20 20 22 27 22 24 31 50 58 57 58 62 80 92 100 100 100 94 100 100 92 79 72 48 44 43 52 70 73 66 73 74
90 100 100 100 100 100 100 87 75 86 91 82 70 34 38 41 34 35 53 61 61 63 68 66 89 99 96 91 86 90 100 100 98 85 69 43 41 45 55 62 72 82 84 76
70 94 88 88 100 100 100 100 100 92 92 81 95 85 52 57 56 50 52 50 58 70 76 86 97 89 92 90 98 100 100 100 91 73 54 43 41 49 59 76 99 89 81 74
86 66 74 100 100 99 100 100 100 100 100 96 86 96 100 75 84 74 72 78 80 88 96 97 86 83 92 100 100 100 95 90 74 54 44 42 51 58 93 100 93 79 74 81
84 100 100 100 100 100 100 99 100 100 100 100 100 99 100 100 90 85 94 97 94 95 94 97 99 100 100 98 92 77 64 60 56 50 51 57 76 97 99 88 80 78 75 78
98 99 100 100 94 91 100 85 100 100 97 100 100 100 100 93 99 100 97 95 99 99 95 90 84 73 69 71 74 74 69 62 60 62 71 88 97 91 86 81 79 78 85 88
100 100 100 100 100 96 98 97 100 100 100 100 96 100 100 100 92 91 90 95 99 96 97 99 100 99 93 84 78 72 70 70 70 80 93 94 91 83 76 77 84 88 80 85
98 97 100 100 100 100 100 99 98 90 93 98 98 97 98 95 93 92 94 90 95 94 97 96 83 76 76 74 72 71 71 75 84 89 86 75 70 77 82 82 78 77 76 48
100 90 96 92 93 94 98 91 99 98 92 94 86 94 89 95 99 100 98 92 94 90 90 94 96 96 95 88 80 78 76 72 69 67 68 70 73 75 72 68 67 48 43 54
76 82 86 85 80 82 88 91 100 90 69 73 78 82 96 99 100 99 99 97 97 97 100 100 100 100 100 100 98 88 65 54 53 55 58 58 57 60 54 43 43 58 82 80
87 82 84 79 72 88 88 95 76 50 50 58 67 72 81 100 100 100 100 99 95 98 100 100 100 100 100 100 100 92 79 72 64 57 52 46 41 41 41 65 83 84 70 62
76 67 70 70 74 87 100 71 43 45 47 57 59 66 71 80 91 94 94 96 98 99 99 98 96 90 83 72 63 60 56 50 44 40 42 54 70 83 88 85 77 65 56 54
53 51 54 60 74 96 63 38 42 40 46 59 74 75 78 80 74 73 78 83 84 80 75 68 64 60 58 58 60 57 54 52 56 63 77 84 88 84 78 79 75 73 71 56
34 37 43 54 63 55 45 41 50 49 71 95 98 98 96 92 89 85 76 71 68 67 70 70 64 62 65 70 66 60 57 56 61 71 79 91 92 90 86 82 79 66 52 44
50 51 54 53 55 64 83 94 96 100 100 100 92 91 92 88 87 87 85 81 79 77 73 75 72 71 72 66 54 50 51 52 56 75 96 99 94 91 85 72 57 48 38 37
84 85 88 87 88 99 100 100 100 100 100 100 99 100 100 100 100 91 78 79 86 94 95 83 74 67 60 55 54 53 63 83 98 100 99 94 84 76 62 51 42 36 35 29
96 99 92 87 89 95 94 97 100 100 100 99 95 92 90 84 80 76 73 73 73 71 70 67 63 62 62 69 88 98 99 100 99 90 84 75 63 52 44 37 36 35 26 18
100 100 100 100 100 100 100 100 97 93 93 91 89 86 79 83 83 79 83 90 92 86 78 72 72 85 99 100 97 98 98 90 84 73 66 55 49 43 39 37 32 23 18 15
100 100 100 100 100 100 100 100 97 92 91 88 88 87 82 91 100 100 100 100 98 95 97 99 100 99 96 98 99 94 86 78 70 61 58 52 43 40 38 31 22 17 13 11
100 100 100 100 100 98 99 99 97 98 94 79 76 93 97 100 100 99 95 93 95 96 94 98 100 100 100 95 88 81 75 68 62 62 55 45 43 39 31 21 17 13 10 6
100 100 100 100 100 100 100 98 95 98 92 88 100 100 100 100 100 100 98 93 94 96 98 98 94 90 86 82 76 73 68 65 63 55 50 47 39 29 22 18 12 9 6 6
100 100 100 100 100 100 100 100 98 94 90 90 100 100 100 100 99 100 98 95 91 87 86 86 83 79 80 78 75 70 68 64 55 51 48 40 27 20 19 12 9 7 6 8
100 100 100 100 100 100 100 99 100 100 100 100 100 100 99 97 97 99 94 93 92 88 86 84 84 83 77 72 69 69 63 56 52 49 43 26 18 17 12 8 7 7 8 9
89 95 98 100 100 100 99 100 100 99 99 96 95 100 100 100 100 100 94 92 87 86 86 84 81 77 74 72 70 62 59 56 52 43 24 18 16 10 8 7 7 9 9 9
84 81 84 96 96 99 100 100 100 100 99 100 100 100 100 99 99 100 98 90 84 82 83 81 80 76 72 70 63 62 58 53 46 24 17 15 10 9 7 7 9 8 8 11

GFSNGP_250_rhum_015.txt.gz
RH
71 68 79 100 100 92 89 99 97 75 33 15 7 6 4 3 2 2 3 7 16 26 38 56 54 57 66 82 90 84 82 98 82 67 76 84 86 90 91 89 70 65 65 56
66 58 88 100 94 97 98 99 99 96 64 29 16 10 7 6 6 7 6 8 19 30 42 54 56 62 74 74 77 82 100 94 87 74 74 76 90 85 86 71 69 64 57 50
88 61 100 95 100 100 100 100 94 98 84 57 36 32 25 19 17 14 16 19 28 38 48 54 69 82 77 76 98 100 100 99 95 90 85 84 87 89 93 100 88 84 57 46
98 75 78 96 100 98 100 100 100 92 98 95 69 59 50 38 32 31 32 29 30 34 44 58 73 81 85 100 100 100 99 99 99 96 88 95 100 100 100 100 100 89 58 42
94 78 66 99 97 100 100 100 100 100 100 100 100 84 64 42 34 33 35 37 43 51 63 77 94 100 99 98 97 100 100 100 95 100 100 100 100 100 100 100 78 53 44 39
65 55 65 73 98 99 97 83 84 100 100 100 100 100 98 83 63 63 69 73 83 100 100 100 100 98 97 87 100 100 100 100 100 100 100 100 100 100 84 62 59 50 45 50
79 69 67 78 94 91 99 100 96 87 100 100 100 100 100 100 95 90 99 100 100 100 100 100 98 97 79 80 90 95 99 100 100 100 99 93 72 67 72 68 64 61 60 69
83 92 99 89 87 99 91 96 100 99 100 94 100 100 100 100 100 98 87 88 97 100 96 90 85 87 88 84 89 97 97 90 76 74 78 86 89 83 75 70 68 72 75 76
100 100 100 94 100 90 99 94 94 95 100 100 84 87 91 100 100 100 100 96 94 89 84 89 95 99 100 94 89 87 91 96 99 97 92 88 82 75 74 78 79 76 71 71
100 99 94 89 96 94 89 83 88 92 95 95 95 82 72 83 92 98 99 100 100 96 90 87 85 86 90 93 96 98 98 96 92 85 76 71 68 65 63 65 69 71 68 65
83 91 99 88 78 72 74 78 83 97 86 79 83 77 73 76 73 85 93 94 95 96 96 92 89 91 94 94 96 96 93 94 96 96 96 94 91 87 85 79 74 67 60 53
87 72 68 70 60 63 68 78 88 90 72 58 70 78 77 84 95 86 79 80 85 92 94 94 93 92 94 99 100 100 100 100 100 100 99 96 93 89 74 60 50 47 55 75
77 77 74 60 58 61 71 84 99 78 59 55 61 70 74 85 98 100 99 93 96 95 92 94 99 100 100 100 100 100 100 93 84 75 69 63 57 53 51 52 62 81 92 95
86 82 73 61 59 70 81 90 88 62 57 56 68 72 75 74 86 99 100 100 98 100 100 99 99 99 98 94 84 75 70 68 65 62 59 53 49 50 52 57 76 95 95 96
77 64 62 65 62 69 76 80 55 48 63 73 75 77 84 90 93 92 89 86 88 88 85 84 82 79 72 71 71 68 63 60 60 57 50 48 54 64 79 94 98 97 88 77
84 63 49 44 48 55 60 55 45 55 74 82 88 96 98 95 91 88 84 80 79 81 79 75 77 77 74 76 72 63 60 58 61 64 72 88 93 97 97 89 81 73 64 54
64 45 38 40 44 54 50 50 53 66 97 100 99 100 99 97 95 94 98 99 96 89 76 67 65 66 68 69 67 64 69 80 82 97 100 96 94 87 80 72 62 54 47 40
73 73 71 63 60 68 76 95 98 99 100 100 100 100 96 96 100 95 87 86 75 69 71 75 78 82 84 81 79 83 87 97 100 98 97 92 84 75 66 58 51 44 38 35
100 100 97 95 97 89 98 100 100 100 98 97 99 100 100 98 89 74 67 74 81 93 100 99 99 93 87 88 93 99 99 97 97 95 89 79 69 60 55 50 42 34 34 28
100 100 100 100 100 100 100 100 100 100 100 100 100 100 90 76 72 78 80 92 92 100 100 100 100 100 98 93 89 92 97 95 88 81 72 64 58 55 49 41 33 31 26 20
100 100 100 100 100 100 100 100 100 100 100 100 97 83 80 72 76 86 94 92 99 100 100 99 97 94 91 93 96 93 83 78 75 70 67 61 58 50 42 32 28 25 21 15
100 100 100 100 100 100 100 100 100 100 99 94 86 87 82 82 94 96 97 100 100 100 100 100 100 100 99 92 84 77 75 76 72 69 62 58 51 44 34 29 25 20 14 9
100 100 100 100 100 100 100 98 100 100 99 94 92 88 88 93 86 90 90 92 91 93 96 94 94 92 85 79 75 74 75 74 68 60 55 53 46 34 28 26 20 13 8 6
100 100 100 100 100 100 100 100 100 100 100 99 93 93 92 88 92 99 95 92 92 94 91 91 92 89 89 82 76 72 70 66 59 54 54 48 36 25 26 20 13 7 6 7
100 100 100 100 100 100 100 100 99 96 92 92 91 99 100 100 100 100 99 98 93 91 94 94 88 88 82 72 69 66 65 60 55 56 48 40 22 26 20 11 7 6 7 8
94 93 95 93 92 93 92 91 94 100 95 92 100 100 100 100 100 100 100 98 100 98 91 84 81 79 73 69 69 68 61 56 56 53 47 22 26 21 11 7 6 8 9 10
82 90 96 99 100 100 99 99 100 100 100 100 99 100 100 100 100 98 98 100 100 92 85 84 82 76 71 70 68 61 55 54 58 56 32 22 24 12 8 7 9 9 11 12

GFSNGP_250_rhum_018.txt.gz
RH
66 66 66 81 100 94 86 92 85 96 92 67 55 39 20 9 5 4 3 2 2 2 2 4 9 14 23 34 52 54 62 67 91 100 100 97 99 99 99 83 73 89 100 91
69 64 72 99 100 85 98 96 99 93 97 82 69 50 32 20 11 6 3 4 4 3 4 9 18 26 37 54 61 66 61 72 97 100 100 100 96 94 94 91 100 91 90 93
73 60 82 98 100 90 99 100 98 79 99 82 76 47 37 32 26 18 13 12 8 9 13 19 31 48 58 68 70 65 75 100 100 100 100 99 94 99 97 99 97 98 95 92
90 88 79 100 100 100 100 89 77 78 84 100 85 57 41 39 35 30 28 25 25 27 34 41 52 70 77 70 76 84 95 100 100 98 100 100 100 88 86 100 98 91 90 92
94 97 79 71 100 100 84 80 61 88 95 98 99 75 56 60 51 45 51 54 58 60 59 65 76 79 76 94 100 100 93 100 100 100 100 100 100 100 100 91 79 83 86 94
99 100 67 68 94 98 98 92 74 75 93 100 98 91 77 88 100 84 66 67 78 84 86 90 94 99 100 99 100 100 100 100 84 99 100 100 99 72 76 86 88 100 100 93
87 69 83 88 93 100 91 80 74 86 93 100 95 95 76 93 95 99 100 99 98 97 98 98 99 100 100 100 100 100 100 100 100 91 91 84 96 100 100 100 99 93 98 100
72 83 83 87 94 99 100 98 93 82 92 100 96 83 83 72 93 87 87 91 100 98 100 98 100 100 100 100 100 100 100 100 100 100 100 100 100 100 93 96 100 100 100 91
82 83 88 84 72 89 88 82 72 70 82 98 100 84 68 86 85 82 91 86 72 91 98 100 100 76 92 100 83 98 100 100 100 97 96 89 90 99 100 100 100 95 81 74
82 73 86 84 82 75 88 73 61 63 80 89 97 85 81 74 93 92 88 95 86 85 85 91 96 93 86 88 88 90 90 83 80 85 96 100 100 100 99 94 90 85 75 62
91 92 81 77 64 62 68 76 66 70 82 80 72 77 84 82 79 99 100 99 98 92 83 85 95 98 95 91 86 89 96 99 100 100 100 99 95 94 87 78 69 61 52 45
100 100 86 69 61 64 69 68 71 79 92 81 69 62 75 74 73 87 91 94 100 100 100 100 100 100 100 100 100 100 100 100 100 98 96 85 79 75 66 56 50 46 45 53
100 97 73 70 65 61 65 75 76 82 84 70 55 70 78 77 88 88 99 100 91 94 93 96 93 96 100 100 100 100 96 99 100 90 82 73 62 57 58 53 49 65 86 93
100 78 74 87 78 63 65 71 79 79 81 48 54 74 77 78 98 100 100 100 100 100 100 100 99 98 96 96 96 96 88 84 80 74 63 56 57 59 59 80 99 100 96 90
73 81 85 82 82 72 72 68 73 71 73 46 72 81 83 89 98 100 100 97 94 91 88 88 88 89 92 92 90 84 73 66 65 65 61 62 71 83 99 100 97 90 80 68
84 86 87 92 78 59 44 48 57 72 47 62 84 89 95 90 95 95 90 88 87 87 92 99 100 96 85 73 68 66 65 65 69 74 79 84 96 99 98 87 80 72 63 56
89 94 100 81 58 43 45 53 62 49 56 72 86 90 97 94 92 95 95 91 94 100 94 77 72 79 89 97 98 94 88 85 87 94 100 100 96 85 80 78 69 64 55 47
78 100 89 78 74 57 52 62 61 60 62 87 99 99 96 96 99 97 89 99 94 73 76 92 97 98 100 100 100 100 100 100 99 94 89 85 79 74 70 66 62 53 46 41
96 99 92 97 87 77 78 85 97 100 100 100 100 98 98 99 100 99 96 82 71 77 90 94 100 100 100 100 100 100 96 92 90 87 80 70 66 63 61 60 54 47 41 30
98 100 100 99 97 98 100 99 100 100 100 100 100 100 100 100 100 98 83 72 80 98 97 100 100 100 100 98 95 90 90 86 80 76 70 63 61 57 59 56 48 38 29 23
100 100 100 100 98 96 100 100 99 96 98 99 100 100 100 100 99 83 72 80 89 94 96 91 93 93 94 92 86 84 79 71 71 68 63 61 56 59 56 48 39 30 22 16
100 100 100 98 95 92 96 97 98 98 100 100 100 100 100 99 92 87 77 89 95 90 89 92 94 96 96 89 82 78 68 68 65 62 59 55 56 56 50 40 32 24 16 10
100 100 100 100 98 96 96 100 100 100 100 100 99 93 91 88 90 90 85 87 90 89 91 96 97 95 87 83 79 74 68 67 67 59 56 54 56 52 41 32 27 18 10 8
100 100 100 100 100 100 100 100 100 100 100 100 100 98 98 94 95 92 83 82 80 91 98 100 99 90 86 84 77 73 71 73 63 58 53 56 54 42 32 27 20 12 9 8
96 97 97 95 99 95 94 99 100 100 100 99 96 95 94 90 86 86 85 88 91 98 98 97 94 86 80 79 77 70 64 61 57 54 55 55 46 30 29 23 14 10 9 10
94 92 92 97 97 95 92 87 86 89 94 98 100 100 100 100 100 100 99 98 94 95 97 91 88 87 81 76 67 61 60 58 56 57 58 53 33 28 25 18 11 9 11 12
100 100 100 96 88 88 93 97 100 100 100 100 100 99 93 95 100 100 100 97 93 99 96 91 89 84 77 72 66 60 55 57 60 58 60 44 25 27 23 14 11 11 13 14

GFSNGP_250_rhum_021.txt.gz
RH
100 94 80 69 99 70 59 74 73 98 69 60 52 67 48 36 22 12 7 4 3 2 2 2 3 3 4 7 11 12 18 32 46 52 58 65 75 96 99 100 100 100 100 100
94 74 64 76 80 76 99 86 82 70 79 59 54 80 51 37 26 13 8 6 4 3 2 2 3 7 11 16 21 49 26 39 61 70 81 79 91 100 100 100 100 100 100 99
84 70 68 84 93 93 92 91 98 94 84 76 60 79 62 40 48 41 30 18 11 10 14 20 13 9 13 49 30 35 44 58 70 81 81 100 100 100 100 100 100 100 98 81
79 64 64 98 88 98 98 80 85 89 79 74 63 69 78 39 54 65 54 49 43 40 40 38 36 26 30 43 41 45 50 65 80 95 100 100 100 100 100 100 93 85 88 63
69 68 72 89 79 100 91 87 90 75 79 73 60 62 89 75 48 75 78 61 54 49 48 52 54 50 54 60 63 71 80 91 100 100 100 100 100 100 100 100 100 100 80 75
86 88 68 81 93 100 85 95 81 88 70 71 77 67 76 94 56 60 83 91 72 64 66 70 77 80 83 88 90 99 100 100 100 100 100 100 100 100 100 97 73 59 68 84
72 65 98 100 100 99 74 88 85 68 61 72 94 71 78 88 91 53 71 81 86 92 94 86 91 100 100 100 100 100 100 100 100 100 97 100 100 82 58 58 68 77 90 100
71 61 85 100 100 86 71 85 72 61 58 67 94 80 99 78 91 97 71 75 92 84 98 97 99 100 100 100 100 98 100 100 90 100 99 65 82 96 98 88 93 100 100 100
75 68 70 99 92 79 79 72 61 56 62 67 84 93 90 85 100 88 96 99 80 70 79 98 93 100 99 99 100 100 98 88 80 78 76 92 98 100 100 100 100 100 100 90
92 90 71 75 82 84 79 69 56 58 69 71 82 88 82 74 81 100 95 100 100 100 97 73 63 61 85 88 91 83 97 100 100 100 100 100 100 100 100 100 93 85 82 78
100 100 96 88 87 87 75 71 70 71 82 73 81 67 79 80 77 91 96 89 96 100 100 100 99 92 88 94 94 98 97 94 97 100 100 100 100 95 80 80 78 76 70 64
99 100 99 89 84 90 87 93 82 86 90 80 84 56 60 76 84 89 97 99 99 96 84 96 100 100 100 100 100 100 100 99 97 90 80 76 77 77 80 78 69 68 64 68
100 100 100 95 91 94 83 88 76 83 86 87 88 55 61 72 90 93 98 100 100 100 100 100 98 98 96 94 95 96 95 88 82 79 82 82 80 75 70 69 72 76 89 93
88 82 82 79 77 80 83 80 90 83 80 75 76 57 70 73 75 91 94 100 100 98 97 95 97 95 90 86 82 80 77 75 75 77 78 76 72 74 82 88 87 94 94 77
94 90 80 70 74 88 94 84 72 62 65 72 60 66 80 82 80 85 86 88 91 89 84 84 86 84 80 78 77 83 91 97 100 100 100 100 100 98 93 93 91 81 72 63
100 88 87 73 80 99 87 80 54 46 50 63 51 65 81 84 87 88 86 82 82 88 90 85 94 86 80 83 98 99 100 100 100 100 100 99 96 92 86 81 76 66 60 52
94 100 93 80 95 92 83 71 47 48 58 49 43 68 77 79 89 93 91 89 89 93 97 96 86 74 90 99 100 100 97 94 95 95 91 85 79 77 75 70 61 54 47 44
100 92 81 82 89 90 82 74 61 62 52 43 64 80 83 86 94 92 90 93 97 100 97 80 75 88 100 100 100 100 93 91 88 83 78 72 70 70 64 58 55 47 42 42
89 83 76 82 84 91 79 80 73 74 68 66 82 94 96 98 99 100 100 100 100 98 83 85 99 100 100 99 94 90 88 86 85 79 73 71 70 64 60 58 46 44 44 39
86 83 94 86 98 86 89 89 89 86 86 95 100 100 100 100 100 100 100 100 100 94 86 91 97 97 92 83 79 82 79 76 75 72 71 68 64 58 54 46 45 45 39 24
87 99 88 97 88 90 86 89 96 100 99 93 96 100 100 100 99 100 100 100 100 100 92 82 76 80 73 68 73 80 82 83 78 74 70 68 57 53 46 46 46 43 28 19
100 93 91 100 97 97 100 98 91 89 91 93 96 100 100 99 99 100 100 99 96 84 78 73 67 70 74 80 85 90 89 82 75 75 72 60 55 51 50 47 43 33 24 16
98 98 100 97 97 100 100 100 96 99 100 100 100 96 94 96 97 100 96 86 80 76 76 80 80 82 80 84 89 87 79 74 77 78 69 58 52 52 52 42 37 29 18 15
100 97 96 96 96 95 94 98 100 100 100 100 100 99 99 99 94 88 84 84 91 91 86 79 77 79 78 79 79 79 76 71 69 67 60 55 54 54 55 36 31 23 16 13
93 95 100 99 93 92 91 91 91 94 94 92 91 92 94 89 82 84 92 98 98 92 84 91 98 95 88 78 71 68 66 70 68 62 59 59 58 61 41 32 29 17 14 11
98 90 91 98 100 100 99 94 93 94 96 96 93 93 89 87 90 96 99 100 99 99 95 98 99 100 98 93 89 84 80 73 70 61 63 65 63 52 29 28 21 15 13 10
100 100 99 98 100 100 100 100 100 100 100 100 100 100 100 100 100 100 100 100 100 99 99 100 100 100 96 96 93 81 72 72 68 70 72 65 60 39 22 23 15 14 10 10

GFSNGP_250_rhum_024.txt.gz
RH
100 96 96 92 95 100 99 90 87 73 80 78 57 38 50 67 57 59 38 23 11 6 3 2 3 4 5 5 5 5 5 7 11 11 14 22 35 54 75 85 98 100 100 100
94 97 96 96 89 98 85 100 94 82 65 56 42 47 56 70 84 82 39 24 13 8 4 4 3 4 6 6 7 9 11 12 13 15 20 31 60 76 80 97 91 100 100 100
92 85 81 69 95 100 92 72 61 77 60 47 46 57 68 72 100 86 56 42 30 23 24 20 13 7 7 10 15 18 17 23 31 35 45 62 70 86 98 100 100 100 100 100
83 80 75 71 91 100 75 65 84 73 53 64 61 71 77 78 95 89 86 76 74 63 77 47 22 17 11 24 30 25 24 27 39 49 60 79 98 100 100 100 100 88 97 100
84 78 73 74 99 88 60 71 75 76 51 57 60 73 79 85 91 87 100 92 90 76 74 53 46 42 52 39 35 55 56 52 60 71 92 100 100 100 100 100 100 100 100 97
80 73 70 71 98 72 73 86 82 68 51 54 65 79 84 80 81 93 86 100 100 96 93 85 72 68 81 86 100 100 100 100 100 100 100 100 100 100 100 100 100 100 82 66
65 64 69 68 68 70 88 80 83 75 68 57 64 79 88 85 91 100 88 81 90 98 95 88 100 100 92 92 98 98 100 92 96 100 100 90 85 100 100 92 64 61 60 68
65 66 71 76 64 84 94 77 86 96 76 59 65 84 82 89 99 97 95 80 80 73 75 96 77 86 90 86 94 100 94 84 96 100 100 99 100 79 80 91 82 92 92 98
67 71 64 66 70 89 79 89 100 95 71 74 79 86 71 89 92 100 94 81 84 89 78 56 74 73 75 88 75 90 95 98 100 100 78 59 56 63 66 84 87 78 82 88
76 75 76 80 86 82 84 94 96 78 74 84 88 93 67 78 82 98 100 100 88 86 88 98 77 76 80 76 80 74 82 81 79 86 86 76 69 71 79 81 84 98 100 100
91 93 98 95 89 80 81 83 84 81 80 100 93 96 67 70 86 80 96 99 97 86 86 94 81 89 87 85 87 92 100 98 100 99 100 100 100 100 100 100 100 100 100 100
87 100 100 100 97 89 83 88 99 90 80 100 90 99 70 63 75 77 83 100 100 98 94 94 93 92 93 95 95 96 96 96 94 90 93 97 99 99 99 98 90 79 73 75
84 95 78 80 87 87 88 100 98 84 78 99 93 90 85 63 76 77 79 87 100 100 100 100 100 99 100 100 100 100 100 100 100 92 81 73 72 76 82 88 95 97 95 96
75 82 71 72 80 87 100 100 99 88 82 83 88 80 72 62 72 84 91 87 89 91 90 95 97 99 99 95 88 83 74 69 72 81 92 98 100 98 98 97 91 86 82 75
81 82 70 77 84 90 99 94 82 75 74 73 63 66 55 64 66 81 88 86 89 96 100 97 90 90 83 73 70 67 76 95 100 95 97 97 90 82 80 78 74 66 60 55
79 82 82 80 80 88 88 77 74 77 78 44 48 59 45 63 74 91 90 89 89 83 85 87 76 74 73 74 75 88 100 99 98 100 92 86 84 80 76 68 61 58 56 53
79 80 82 82 86 81 74 84 88 81 76 53 55 59 46 64 80 88 84 84 88 90 85 79 87 93 82 80 88 100 100 100 100 92 84 80 75 67 63 62 60 58 52 48
84 88 87 84 86 78 84 85 80 89 85 78 71 51 51 72 78 89 92 89 92 91 91 92 93 83 75 81 91 92 87 79 66 62 63 64 63 66 65 61 58 55 48 49
100 99 90 92 98 87 81 66 70 91 94 84 63 62 71 78 94 98 94 90 89 89 91 91 93 93 93 80 75 70 69 69 74 80 85 85 77 68 62 57 56 50 49 48
100 100 99 96 95 79 69 72 79 89 96 91 84 76 84 94 94 94 99 99 93 92 94 93 88 84 90 78 70 69 70 65 64 68 73 71 67 61 60 59 54 52 55 55
100 98 99 97 88 73 76 75 80 97 97 92 94 97 99 100 98 94 92 94 96 97 100 98 86 86 78 74 72 69 70 78 84 80 72 72 72 71 66 60 57 57 62 54
97 99 93 93 80 80 92 92 88 94 95 92 88 92 100 100 99 91 87 91 99 100 100 96 89 82 78 80 81 79 86 95 98 92 86 81 76 70 64 62 61 61 57 40
98 94 96 91 79 98 100 100 100 96 96 96 92 92 91 90 92 95 94 97 100 100 97 94 92 87 88 93 90 92 98 94 97 95 82 72 72 71 67 62 67 59 44 24
100 100 100 98 80 94 100 100 100 98 97 100 99 96 94 93 94 93 89 88 97 98 95 92 91 97 100 95 90 93 95 96 94 86 80 78 72 72 70 64 66 40 28 17
95 100 100 100 98 91 94 96 100 100 100 99 98 97 97 93 90 90 89 95 96 99 100 100 95 94 94 90 90 89 89 87 86 88 84 75 76 72 69 69 50 28 21 13
100 98 97 100 100 99 97 99 93 89 91 92 93 95 97 95 94 100 100 100 100 100 100 99 94 100 98 96 97 93 90 93 95 90 82 82 78 73 68 47 27 21 14 11
94 95 97 100 100 100 100 99 97 97 98 100 100 100 100 99 99 100 100 100 100 100 100 100 100 100 100 96 94 90 89 90 89 90 86 72 72 69 48 25 19 16 12 11

GFSNGP_250_rhum_027.txt.gz
RH
91 94 89 100 97 90 100 100 100 100 99 94 79 64 53 42 43 48 48 46 42 38 30 21 10 5 3 3 3 3 4 5 6 10 18 23 24 32 43 50 62 52 58 80
93 84 98 97 97 98 100 100 100 100 95 71 70 54 54 50 67 59 49 72 62 56 48 31 11 10 5 4 4 4 5 5 6 7 8 11 18 25 34 32 38 42 46 71
100 99 99 89 100 100 100 100 94 85 68 58 63 54 51 65 72 67 57 94 76 65 81 87 53 24 18 15 12 10 8 7 7 10 13 17 21 28 34 40 47 59 93 100
96 95 99 100 100 100 100 94 90 72 63 58 52 48 56 81 71 79 88 96 98 70 54 82 81 50 27 30 29 25 24 16 19 26 32 38 44 55 66 65 79 95 100 100
93 95 99 100 100 94 98 93 94 68 69 54 54 66 69 93 80 84 93 100 80 89 67 53 59 51 50 52 46 40 34 30 36 41 56 63 58 99 99 100 100 100 100 100
78 89 94 90 74 86 100 96 72 68 63 56 58 74 82 92 91 86 86 98 97 84 85 70 56 41 39 55 60 58 57 65 75 83 75 100 100 100 100 100 100 100 88 100
88 87 85 85 84 89 91 92 76 62 55 65 67 89 98 96 96 83 90 100 100 100 100 92 69 69 65 45 56 66 74 95 99 100 100 89 83 92 100 100 100 95 100 100
81 81 82 77 82 94 77 93 76 71 79 76 78 100 100 100 100 85 90 98 98 100 100 100 99 90 85 75 71 71 71 72 63 74 90 89 80 68 70 81 77 78 77 70
81 71 66 78 80 89 70 80 77 70 94 85 84 100 100 99 100 91 83 90 86 90 100 98 100 97 100 81 75 74 81 91 94 92 90 85 91 93 76 78 73 78 81 78
83 77 66 58 71 79 73 69 63 72 94 90 86 95 100 97 96 99 86 89 89 98 91 83 90 80 81 77 83 93 100 95 97 97 91 91 91 88 87 83 82 78 76 79
97 82 72 87 69 70 76 66 70 73 96 89 88 88 100 100 85 94 83 83 83 80 78 89 84 79 81 86 84 84 95 100 97 95 100 100 100 94 96 98 95 93 100 100
89 90 89 75 69 70 78 79 76 92 92 95 90 78 98 94 81 77 84 94 80 72 81 82 87 87 84 87 92 94 98 99 98 100 99 97 94 91 93 96 99 100 100 100
91 100 94 74 69 80 92 98 88 96 85 88 84 78 87 83 72 73 85 86 88 78 82 87 86 82 87 87 86 89 94 94 87 81 78 76 87 98 99 98 100 100 100 100
88 98 98 80 78 84 90 94 96 95 85 88 82 74 84 77 67 69 81 84 87 94 90 88 95 100 100 98 95 90 81 71 66 79 89 96 96 97 100 99 94 91 88 83
98 90 98 94 85 68 70 72 73 77 76 73 65 68 81 63 57 66 77 89 97 99 90 91 94 91 93 89 76 73 70 69 85 100 100 100 100 97 89 82 78 74 68 67
100 99 97 93 92 79 69 72 80 77 86 71 63 80 61 51 53 58 73 80 85 91 93 91 88 94 84 76 78 72 70 89 100 99 95 85 71 67 68 73 78 80 75 69
98 99 100 97 90 86 85 85 85 76 74 69 75 81 69 56 57 61 77 85 93 89 85 93 92 78 78 85 85 86 87 80 84 80 74 68 69 74 74 72 69 63 58 54
92 100 100 97 93 88 84 87 85 76 64 61 68 78 82 78 75 77 88 96 93 88 93 92 87 89 93 95 97 100 100 100 82 77 74 76 80 77 72 66 58 55 54 58
93 98 99 94 89 88 87 85 76 75 70 67 70 81 84 88 76 94 97 98 100 98 95 94 96 93 99 100 98 98 96 86 83 81 78 77 72 67 62 59 60 58 59 65
100 99 100 100 100 99 95 91 87 82 73 66 73 84 90 91 78 94 99 100 100 99 99 100 99 99 100 99 95 94 95 93 90 83 80 72 66 64 62 63 63 60 67 67
100 100 100 100 100 98 99 96 93 83 75 68 78 89 85 86 84 95 99 100 100 98 100 100 100 100 98 89 96 100 100 97 91 83 72 68 66 66 64 64 70 71 70 66
100 100 100 100 99 100 97 89 88 83 79 78 81 89 94 99 98 98 100 100 100 100 100 100 100 100 98 100 100 100 96 91 84 78 71 68 69 67 72 77 75 68 64 60
100 100 100 97 97 100 94 88 93 86 82 84 95 96 95 100 100 100 100 100 100 100 100 98 100 100 100 100 99 92 84 83 81 73 69 75 74 76 75 75 71 70 59 40
100 99 99 100 100 99 94 91 96 90 83 80 98 100 100 98 95 98 99 100 100 98 95 95 96 100 96 92 93 88 87 81 73 74 82 83 81 80 74 75 73 57 35 19
63 89 100 100 100 100 98 93 94 99 93 91 89 91 90 87 84 83 86 91 97 99 99 100 100 99 98 96 91 85 81 83 88 92 90 87 86 82 79 77 55 32 20 16
63 62 70 90 97 99 100 98 92 85 88 96 97 100 100 100 99 93 91 96 95 95 99 100 99 91 82 87 89 83 88 92 89 92 94 90 82 85 79 58 40 30 17 14
64 66 67 72 86 97 98 98 94 94 86 87 92 98 98 96 95 89 90 96 97 100 100 98 98 91 85 85 84 85 94 94 97 100 92 88 94 87 72 54 45 25 15 11

GFSNGP_250_rhum_030.txt.gz
RH
74 76 79 77 72 74 56 61 62 96 100 99 94 94 93 79 77 77 51 43 47 44 49 42 38 26 36 32 23 9 5 2 2 2 3 5 10 14 21 28 36 43 53 60
97 87 80 75 84 70 85 94 100 100 99 100 92 88 89 87 76 41 47 64 55 58 51 52 42 59 57 58 26 13 10 5 4 4 4 4 6 12 19 26 35 47 56 64
84 90 95 94 96 96 100 99 100 100 98 89 92 90 89 56 48 49 73 62 64 56 62 75 56 72 74 44 30 23 16 9 6 6 6 7 9 12 15 23 35 62 80 88
77 91 96 97 91 96 100 100 100 99 93 99 94 69 58 51 46 58 75 67 62 74 78 91 74 74 64 46 46 52 34 21 13 12 11 10 14 18 25 32 39 49 59 66
85 92 94 95 99 100 100 100 100 91 100 100 67 60 64 57 62 68 77 78 71 84 79 100 97 71 63 39 55 61 50 52 34 28 40 30 35 48 50 64 94 97 100 100
90 96 98 100 100 98 99 91 96 100 96 80 63 64 64 78 68 76 82 87 75 87 94 76 87 94 87 70 53 47 60 35 52 48 40 44 55 85 100 100 97 100 100 100
96 100 98 99 85 87 96 100 100 99 84 77 73 66 74 96 88 76 92 96 87 95 100 86 78 80 100 82 68 55 59 55 43 44 46 49 49 62 92 85 70 71 86 84
91 80 82 86 83 98 100 100 98 89 84 95 81 67 78 100 97 95 90 96 100 88 96 96 93 94 95 88 79 72 75 74 70 70 72 70 68 68 58 57 59 57 58 58
65 80 82 92 95 100 92 84 84 80 87 96 71 72 84 84 100 98 98 84 91 95 80 80 84 95 99 100 99 85 93 100 95 86 82 88 91 82 83 81 79 79 84 87
81 92 93 95 95 98 94 85 77 74 67 69 66 77 90 79 93 100 99 84 78 92 94 92 85 86 96 100 99 96 86 83 96 100 100 100 100 99 100 99 98 97 95 89
89 99 96 91 87 81 72 71 73 66 70 60 63 76 87 83 76 98 98 79 78 79 82 86 90 86 79 77 80 83 84 94 98 99 100 100 99 100 100 100 100 100 100 100
76 98 93 84 76 64 65 70 65 72 74 79 85 90 82 74 69 87 92 75 81 78 72 81 87 88 92 93 96 98 92 90 89 82 80 80 85 88 86 89 94 95 98 99
84 95 90 87 91 85 88 77 78 85 88 98 99 92 80 74 66 79 78 72 78 83 86 84 93 95 95 95 94 92 90 83 76 76 76 81 97 99 98 92 84 83 87 94
89 95 93 80 92 99 97 94 88 81 85 88 86 80 77 70 61 80 72 62 67 84 92 98 92 95 98 92 88 84 77 79 71 72 77 82 88 89 87 83 78 76 76 77
98 96 96 91 86 96 99 90 85 84 83 78 74 73 71 64 63 79 58 56 63 82 93 96 100 100 99 91 88 88 85 79 76 73 75 81 80 80 80 82 84 84 78 72
99 100 100 99 100 100 100 100 88 76 62 60 66 67 70 63 71 73 56 56 63 81 96 98 94 94 89 98 99 90 92 88 88 91 94 95 97 90 81 76 73 66 63 63
92 100 100 100 100 100 100 100 99 96 79 74 84 79 71 65 64 70 71 71 74 91 96 95 97 93 98 99 96 88 89 93 94 100 100 100 91 89 82 74 68 61 61 58
92 91 98 99 100 100 100 97 100 97 89 86 85 82 77 73 68 73 87 85 90 98 100 99 99 100 100 100 97 95 96 100 100 100 100 96 92 85 79 73 65 59 58 59
99 92 100 98 100 100 100 100 98 100 92 85 87 82 83 80 70 77 86 93 92 98 100 100 100 100 100 100 100 100 100 100 99 100 100 92 86 82 79 70 64 59 59 59
100 96 100 100 100 100 100 100 98 99 98 90 93 88 91 86 67 76 88 95 90 94 100 100 100 98 99 100 100 100 100 100 100 98 94 97 92 82 73 66 60 58 59 62
100 100 100 100 100 98 100 100 100 100 100 94 91 96 96 84 68 74 90 96 94 92 100 100 100 100 100 100 100 100 100 100 100 98 99 95 84 74 66 61 61 62 67 66
100 100 100 100 100 95 100 100 100 100 96 88 87 99 92 82 73 83 99 98 96 98 97 100 100 100 100 100 100 100 100 100 100 96 97 92 79 66 62 63 65 72 66 60
80 100 100 100 99 96 100 100 100 99 97 91 88 88 88 82 81 91 100 100 100 100 100 100 100 100 100 100 100 100 100 100 100 100 96 80 70 65 65 68 71 75 74 67
48 96 100 100 98 98 100 100 99 100 100 100 96 94 90 89 90 91 93 100 100 100 100 100 100 100 100 99 96 100 100 98 96 90 80 74 68 67 72 72 75 79 69 66
39 46 81 97 100 96 93 97 100 99 100 100 95 93 91 87 87 86 86 90 94 100 100 100 100 98 100 99 95 92 95 92 90 86 76 73 71 75 74 83 78 72 67 63
43 40 39 46 66 88 98 98 97 94 98 100 100 98 97 96 90 84 80 82 96 100 100 100 99 99 99 97 98 94 94 94 89 81 77 72 79 79 80 80 76 79 70 60
57 53 49 46 44 48 53 64 78 90 92 92 98 100 100 98 99 98 92 84 84 91 99 100 100 100 100 97 93 94 92 89 85 77 75 85 82 79 85 75 80 80 73 51